This demonstration page uses our WeatherBlox Daily Observations layout. Learn more.

Left ArrowRight Arrow

Hourly Observations for August 7, 2018

Temp ( °F °C ) Dew Point ( °F °C ) Humidity (%) Winds ( mph kmh ) Pressure ( in mb ) Visibility ( mi km ) Precip ( " mm )
12:52 am 00:52 Clear 78 25.6 67 19.4 69 69 S 9 15 30.00 1016 10 16 0.00 0.00
1:52 am 01:52 Mostly Cloudy 79 26.1 67 19.4 67 67 S 9 15 29.99 1016 10 16 0.00 0.00
2:52 am 02:52 Clear 77 25 67 19.4 71 71 S 8 13 29.97 1015 10 16 0.00 0.00
3:52 am 03:52 Clear 76 24.4 67 19.4 74 74 S 8 13 29.98 1015 10 16 0.00 0.00
4:52 am 04:52 Partly Cloudy 74 23.3 66 18.9 76 76 S 8 13 29.98 1015 10 16 0.00 0.00
5:52 am 05:52 Clear 73 22.8 66 18.9 79 79 S 7 11 29.98 1015 10 16 0.00 0.00
6:52 am 06:52 Sunny 73 22.8 67 19.4 81 81 S 8 13 29.98 1015 10 16 0.00 0.00
7:52 am 07:52 Sunny 79 26.1 67 19.4 67 67 SSW 12 19 29.98 1015 10 16 0.00 0.00
8:52 am 08:52 Sunny 84 28.9 67 19.4 57 57 SW 16 26 29.99 1016 10 16 0.00 0.00
9:17 am 09:17 Mostly Cloudy 83 28.3 67 19.4 59 59 WNW 10 17 30.00 1016 10 16 0.00 0.00
9:52 am 09:52 Mostly Sunny 85 29.4 67 19.4 55 55 WNW 13 20 30.02 1017 10 16 0.00 0.00
10:52 am 10:52 Cloudy with Light Rain 80 26.7 68 20 67 67 W 18 30 30.04 1017 10 16 0.00 0.03
11:52 am 11:52 Cloudy with Light Rain 75 23.9 70 21.1 84 84 NNW 7 11 30.06 1018 9 14 0.00 0.03
12:52 pm 12:52 Mostly Cloudy with Light Rain 74 23.3 70 21.1 88 88 SE 7 11 30.00 1016 10 16 0.06 1.52
1:52 pm 13:52 Mostly Cloudy 78 25.6 69 20.6 74 74 SSW 5 7 29.97 1015 10 16 0.00 0.03
2:52 pm 14:52 Mostly Cloudy 78 25.6 69 20.6 74 74 SSW 10 17 29.98 1015 10 16 0.00 0.03
3:02 pm 15:02 Mostly Cloudy with Nearby Thunderstorms 77 25 68 20 74 74 SSW 12 19 29.97 1015 10 16 0.00 0.00
3:17 pm 15:17 Cloudy with Light Rain 76 24.4 69 20.6 79 79 SSW 9 15 29.94 1014 10 16 0.00 0.03
3:52 pm 15:52 Cloudy 76 24.4 71 21.7 85 85 S 5 7 29.96 1015 7 11 0.02 0.51
4:52 pm 16:52 Partly Cloudy 81 27.2 72 22.2 74 74 VRB 6 9 29.93 1014 10 16 0.00 0.00
5:12 pm 17:12 Mostly Cloudy 82 27.8 72 22.2 72 72 undefined N/A 29.91 1013 10 16 0.00 0.00
5:34 pm 17:34 Partly Cloudy 84 28.9 71 21.7 65 65 W 10 17 29.91 1013 10 16 0.00 0.00
5:52 pm 17:52 Partly Cloudy 84 28.9 71 21.7 65 65 WSW 7 11 29.93 1013 10 16 0.00 0.00
6:52 pm 18:52 Mostly Sunny 83 28.3 70 21.1 65 65 W 8 13 29.94 1014 10 16 0.00 0.00
7:52 pm 19:52 Sunny 81 27.2 70 21.1 69 69 WNW 3 6 29.93 1014 10 16 0.00 0.00
8:52 pm 20:52 Mostly Cloudy 78 25.6 70 21.1 76 76 Calm 29.93 1014 10 16 0.00 0.00
9:47 pm 21:47 Mostly Cloudy 79 26 72 22 79 79 Calm 29.94 1014 10 16 0.00 0.00
9:52 pm 21:52 Mostly Cloudy 78 25.6 71 21.7 79 79 Calm 29.96 1014 10 16 0.00 0.00
10:10 pm 22:10 Cloudy 78 25.6 71 21.7 79 79 Calm 29.94 1014 10 16 0.00 0.00
10:52 pm 22:52 Mostly Clear 77 25 71 21.7 82 82 Calm 29.96 1014 10 16 0.00 0.00
11:52 pm 23:52 Mostly Clear 75 23.9 70 21.1 84 84 Calm 29.97 1015 9 14 0.00 0.00

Powered by AerisWeather